User: anonymous   Login
Location: Meriden
(44.0740°N, 93.3870°W)
Time: 21:57:25
(UTC-06:00)
Language:

AO-27 - Orbit

View from above orbital plane
View from above orbital plane
View from above satellite
View from above satellite

Ground track
Ground track

The orbit data is extracted from the following two-line orbital elements,

1 22825U 93061C   15063.46571461  .00000216  00000-0  10150-3 0  9996
2 22825 098.6971 013.6170 0007332 254.0335 245.8166 14.29842557117970
Epoch (UTC): 04 March 2015 11:10:37
Eccentricity: 0.0007332
inclination: 98.6971°
perigee height: 787 km
apogee height: 797 km
right ascension of ascending node: 13.6170°
argument of perigee: 254.0335°
revolutions per day: 14.29842557
mean anomaly at epoch: 245.8166°
orbit number at epoch: 11797

The dashed part of the orbit path shows where the satellite is in the earth's shadow,  

DLR